sat.trackr.live / text

‹ back to catalog

STARLINK-5303

NORAD 55630 · 2023-021C

PAYLOAD ACTIVE UNKNOWN

§ Identity

Operator
Country
US
Launch date
2023-02-17
Launch site
AFWTR
Launch vehicle
Mass (kg)
RCS (m²)

Purposes: comms

External: N2YO · Heavens-Above · Gunter

§ Orbital elements

Epoch: 2026-09-20T22:00:03.000096Z

Period
95.73 min
Inclination
70.0013°
Eccentricity
0.0004191
Mean motion
15.04293709 rev/d
Perigee alt
550.8 km
Apogee alt
556.6 km
Semi-major
6,931.8 km
B*
5.9573e-3
RAAN
72.2391°
Arg perigee
272.2559°
Mean anomaly
353.4092°
Rev number
571

§ Raw data

STARLINK-53031 55630U 23021C   26263.91670139  .00084030  00000+0  59573-2 0  99972 55630  70.0013  72.2391 0004191 272.2559 353.4092 15.04293709  5712

JSON: /api/v1/satellites/55630 · /tle

For live sub-satellite position, see the globe view (requires WebGL).

§ Visibility from observer

Set your observer location to see the next 7 days of passes ≥ 10°. The values pass through the URL so the page stays shareable.

No JS? Fill the form by hand. The geolocation button needs JavaScript.